Time,TemperatureF,DewpointF,PressureIn,WindDirection,WindDirectionDegrees,WindSpeedMPH,WindSpeedGustMPH,Humidity,HourlyPrecipIn,Conditions,Clouds,dailyrainin,SoftwareType,DateUTC
2015-08-01 00:02:00,73.0,46.6,29.85,West,270,2.9,2.9,39,0.00,,,0.00,VWS V15.00,2015-08-01 04:02:00,
2015-08-01 00:08:00,72.9,46.5,29.85,WSW,248,4.7,4.7,39,0.00,,,0.00,VWS V15.00,2015-08-01 04:08:00,
2015-08-01 00:13:00,72.7,47.0,29.85,WNW,292,4.0,4.0,40,0.00,,,0.00,VWS V15.00,2015-08-01 04:13:00,
2015-08-01 00:18:00,72.5,46.8,29.85,WSW,248,3.1,3.1,40,0.00,,,0.00,VWS V15.00,2015-08-01 04:18:00,
2015-08-01 00:23:00,72.5,46.8,29.85,West,270,2.5,2.5,40,0.00,,,0.00,VWS V15.00,2015-08-01 04:23:00,
2015-08-01 00:28:00,72.3,46.7,29.85,West,270,2.0,2.0,40,0.00,,,0.00,VWS V15.00,2015-08-01 04:28:00,
2015-08-01 00:33:00,72.1,46.5,29.88,West,270,2.7,2.7,40,0.00,,,0.00,VWS V15.00,2015-08-01 04:33:00,
2015-08-01 00:38:00,72.1,46.5,29.88,West,270,3.6,3.6,40,0.00,,,0.00,VWS V15.00,2015-08-01 04:38:00,
2015-08-01 00:43:00,72.0,46.3,29.88,WSW,248,2.0,2.0,40,0.00,,,0.00,VWS V15.00,2015-08-01 04:43:00,
2015-08-01 00:48:00,72.0,46.3,29.88,WNW,292,5.6,5.6,40,0.00,,,0.00,VWS V15.00,2015-08-01 04:48:00,
2015-08-01 00:53:00,71.8,46.2,29.88,West,270,4.3,4.3,40,0.00,,,0.00,VWS V15.00,2015-08-01 04:53:00,
2015-08-01 00:58:00,71.8,45.5,29.88,West,270,3.6,3.6,39,0.00,,,0.00,VWS V15.00,2015-08-01 04:58:00,
2015-08-01 01:03:00,71.8,45.5,29.88,WNW,292,4.0,4.0,39,0.00,,,0.00,VWS V15.00,2015-08-01 05:03:00,
2015-08-01 01:08:00,71.8,45.5,29.88,West,270,2.9,2.9,39,0.00,,,0.00,VWS V15.00,2015-08-01 05:08:00,
2015-08-01 01:13:00,71.6,46.0,29.88,NW,315,4.3,4.3,40,0.00,,,0.00,VWS V15.00,2015-08-01 05:13:00,
2015-08-01 01:18:00,71.4,45.9,29.88,WNW,292,2.5,2.5,40,0.00,,,0.00,VWS V15.00,2015-08-01 05:18:00,
2015-08-01 01:23:00,71.2,45.7,29.88,West,270,2.9,2.9,40,0.00,,,0.00,VWS V15.00,2015-08-01 05:23:00,
2015-08-01 01:28:00,71.1,45.5,29.88,WSW,248,2.2,2.2,40,0.00,,,0.00,VWS V15.00,2015-08-01 05:28:00,
2015-08-01 01:33:00,70.7,45.2,29.88,WSW,248,2.7,2.7,40,0.00,,,0.00,VWS V15.00,2015-08-01 05:33:00,
2015-08-01 01:38:00,70.7,45.2,29.88,West,270,4.7,4.7,40,0.00,,,0.00,VWS V15.00,2015-08-01 05:38:00,
2015-08-01 01:43:00,70.5,45.7,29.88,West,270,3.4,3.4,41,0.00,,,0.00,VWS V15.00,2015-08-01 05:43:00,
2015-08-01 01:48:00,70.3,45.5,29.88,West,270,2.7,2.7,41,0.00,,,0.00,VWS V15.00,2015-08-01 05:48:00,
2015-08-01 01:53:00,70.0,45.9,29.88,NE,45,0.0,0.0,42,0.00,,,0.00,VWS V15.00,2015-08-01 05:53:00,
2015-08-01 01:58:00,69.8,45.1,29.88,WSW,248,2.0,2.0,41,0.00,,,0.00,VWS V15.00,2015-08-01 05:58:00,
2015-08-01 02:03:00,69.8,45.7,29.88,SW,225,1.3,1.3,42,0.00,,,0.00,VWS V15.00,2015-08-01 06:03:00,